"startDT [UTC]","vpos","CH4 [ppm]","stdev(CH4) [ppm]","CO2 [ppm]","stdev(CO2) [ppm]","H2O_reported [%]","stdev(H2O_reported)","CavityPressure [torr]","CavityTemp [C]","OutletValve","CH4_dry [ppm]","CO2_dry [ppm]","DasTemp [C]","EtalonTemp [C]","WarmBoxTemp [C]","MPVPosition","T_ECpre [C]","T_EC1 [C]","T_EC2 [C]","p_inlet [hPa]","p_in [hPa]","p_out [hPa]","T_inlet [C]","RH_inlet [%]","dwpt_inlet [C]","T_vent [C]","RH_vent [%]","dwpt_vent [C]","flow_vent [l min-1]","flow_inlet [l min-1]","dwpt_sample [C]","T_room [C]"
2013-08-12 00:00:00,0.0,1.86956,0.00097,380.632,0.026,1.7687,0.0020,139.999,45.000,31807.38247,1.90395,389.220,41.011,45.050,45.000,0.00,0.13,-272.53,-272.61,-32,577,-14,30.7,30.9,11.5,30.4,32.4,12.0,5.73,2.41,9.0,34.0
2013-08-12 00:01:00,0.0,1.87740,0.00314,380.659,0.044,1.7476,0.0193,140.003,45.000,31809.50848,1.91102,389.148,41.024,45.050,45.000,0.00,0.13,-272.53,-272.61,-32,577,-14,30.7,30.4,11.3,30.4,31.9,11.8,5.73,2.50,9.0,34.1
2013-08-12 00:02:00,0.0,1.87996,0.00276,380.887,0.099,1.6797,0.0137,140.003,45.000,31810.38930,1.91284,389.026,41.034,45.050,45.000,0.00,0.13,-272.53,-272.61,-32,577,-14,30.7,29.2,10.7,30.4,30.6,11.2,5.73,2.44,9.0,34.0
2013-08-12 00:03:00,0.0,1.88250,0.00128,380.998,0.087,1.6615,0.0112,140.003,45.000,31809.39906,1.91475,389.045,41.020,45.050,45.000,0.00,0.13,-272.53,-272.61,-32,577,-14,30.7,28.8,10.5,30.4,30.2,11.0,5.73,2.40,9.0,34.0
2013-08-12 00:04:00,0.0,1.88272,0.00148,381.078,0.021,1.6484,0.0027,139.997,45.000,31808.52805,1.91478,389.055,41.036,45.050,45.000,0.00,0.13,-272.53,-272.61,-32,577,-14,30.7,28.6,10.3,30.4,29.9,10.8,5.73,2.50,8.9,33.9
2013-08-12 00:05:00,0.0,1.87791,0.00361,381.065,0.078,1.6571,0.0159,140.000,45.000,31809.22287,1.91117,389.084,41.012,45.050,45.000,0.00,0.13,-272.53,-272.61,-32,577,-14,30.7,28.8,10.5,30.4,30.1,10.9,5.73,2.46,9.0,34.0
2013-08-12 00:06:00,0.0,1.87069,0.00150,380.836,0.092,1.7201,0.0173,140.000,45.000,31810.00371,1.90447,389.169,41.013,45.050,45.000,0.00,0.13,-272.53,-272.61,-32,577,-14,30.7,30.0,11.1,30.4,31.4,11.5,5.73,2.39,9.0,34.0
2013-08-12 00:07:00,0.0,1.86972,0.00133,380.621,0.056,1.7563,0.0075,139.999,45.000,31808.07957,1.90388,389.143,41.014,45.050,45.000,0.00,0.13,-272.53,-272.60,-32,577,-14,30.7,30.7,11.4,30.4,32.2,11.9,5.73,2.48,9.0,34.0
2013-08-12 00:08:00,0.0,1.86729,0.00098,380.443,0.072,1.7676,0.0100,140.002,45.000,31810.42192,1.90181,389.022,41.010,45.050,45.000,0.00,0.13,-272.53,-272.61,-32,577,-14,30.7,30.9,11.6,30.4,32.4,12.0,5.73,2.47,9.0,34.0
2013-08-12 00:09:00,0.0,1.86557,0.00089,380.342,0.023,1.7962,0.0061,139.999,45.000,31812.66579,1.90078,389.060,41.008,45.050,45.000,0.00,0.13,-272.53,-272.61,-32,577,-14,30.6,31.5,11.8,30.4,33.0,12.3,5.73,2.39,8.9,33.8
2013-08-12 00:10:00,0.0,1.86458,0.00040,380.282,0.035,1.8147,0.0038,139.997,45.000,31812.90773,1.89995,389.095,41.001,45.050,45.000,0.00,0.13,-272.53,-272.61,-32,576,-14,30.7,31.8,12.0,30.4,33.3,12.4,5.73,2.47,8.9,33.7
2013-08-12 00:11:00,0.0,1.86387,0.00027,380.216,0.056,1.8261,0.0019,140.000,45.000,31814.08141,1.89948,389.090,41.000,45.050,45.000,0.00,0.13,-272.53,-272.61,-32,577,-14,30.6,32.1,12.1,30.4,33.6,12.5,5.73,2.49,8.9,33.8
2013-08-12 00:12:00,0.0,1.86414,0.00038,380.173,0.066,1.8332,0.0048,140.002,45.000,31813.28669,1.89978,389.084,41.004,45.050,45.000,0.00,0.13,-272.53,-272.61,-32,577,-14,30.6,32.2,12.1,30.4,33.7,12.6,5.73,2.39,8.9,33.8
2013-08-12 00:13:00,0.0,1.86392,0.00036,380.026,0.064,1.8353,0.0038,140.002,45.000,31813.47092,1.89977,388.940,41.002,45.050,45.000,0.00,0.13,-272.53,-272.61,-32,577,-14,30.6,32.2,12.1,30.4,33.7,12.6,5.73,2.46,8.9,33.9
2013-08-12 00:14:00,0.0,1.86507,0.00026,380.144,0.051,1.8349,0.0046,139.998,45.000,31813.18987,1.90076,389.061,41.001,45.050,45.000,0.00,0.13,-272.53,-272.60,-32,577,-14,30.7,32.2,12.1,30.4,33.7,12.6,5.73,2.50,8.9,34.0
2013-08-12 00:15:00,0.0,1.86531,0.00036,380.232,0.030,1.8261,0.0019,140.001,45.000,31810.87372,1.90090,389.103,41.000,45.050,45.000,0.00,0.13,-272.53,-272.61,-32,577,-14,30.7,32.0,12.1,30.4,33.5,12.5,5.73,2.40,8.9,34.0
2013-08-12 00:16:00,0.0,1.86477,0.00040,380.254,0.041,1.8258,0.0030,139.999,45.000,31811.12956,1.90042,389.127,41.000,45.050,45.000,0.00,0.13,-272.53,-272.61,-32,577,-14,30.7,32.0,12.1,30.4,33.5,12.5,5.73,2.43,8.9,34.1
2013-08-12 00:17:00,0.0,1.86426,0.00033,380.268,0.028,1.8289,0.0024,139.993,45.000,31810.66179,1.89992,389.154,41.000,45.050,45.000,0.00,0.13,-272.53,-272.60,-32,577,-14,30.7,32.1,12.1,30.4,33.6,12.6,5.73,2.51,8.9,33.9
2013-08-12 00:18:00,0.0,1.86454,0.00040,380.225,0.045,1.8400,0.0050,140.002,45.000,31811.68403,1.90039,389.168,41.000,45.050,45.000,0.00,0.13,-272.53,-272.61,-32,577,-14,30.7,32.3,12.2,30.4,33.8,12.7,5.73,2.41,8.9,33.9
2013-08-12 00:19:00,0.0,1.86505,0.00019,380.234,0.025,1.8389,0.0022,139.998,45.000,31811.69548,1.90088,389.175,41.000,45.050,45.000,0.00,0.13,-272.53,-272.61,-32,577,-14,30.6,32.3,12.2,30.4,33.8,12.7,5.73,2.42,8.9,34.0
2013-08-12 00:20:00,0.0,1.86513,0.00092,380.202,0.056,1.8424,0.0021,140.003,45.000,31815.45530,1.90119,389.162,41.000,45.050,45.000,0.00,0.13,-272.53,-272.61,-32,577,-14,30.6,32.3,12.2,30.4,33.9,12.7,5.73,2.51,8.9,34.0
2013-08-12 00:21:00,0.0,1.86464,0.00047,380.184,0.032,1.8398,0.0025,139.996,45.000,31815.12160,1.90045,389.125,40.999,45.050,45.000,0.00,0.13,-272.53,-272.60,-32,576,-14,30.6,32.3,12.2,30.4,33.8,12.7,5.73,2.42,8.9,34.0
2013-08-12 00:22:00,0.0,1.86500,0.00080,380.218,0.041,1.8384,0.0030,140.005,45.000,31817.93315,1.90071,389.155,41.000,45.050,45.000,0.00,0.13,-272.53,-272.61,-32,577,-14,30.7,32.3,12.2,30.4,33.8,12.6,5.73,2.41,8.9,33.9
2013-08-12 00:23:00,0.0,1.86681,0.00036,380.226,0.031,1.8399,0.0030,140.005,45.000,31819.21758,1.90274,389.171,41.000,45.050,45.000,0.00,0.13,-272.53,-272.61,-32,577,-14,30.7,32.3,12.2,30.4,33.8,12.6,5.73,2.50,8.9,33.8
2013-08-12 00:24:00,0.0,1.86651,0.00076,380.169,0.038,1.8391,0.0026,140.000,45.000,31815.91990,1.90244,389.112,40.998,45.050,45.000,0.00,0.13,-272.53,-272.60,-32,577,-14,30.6,32.3,12.2,30.4,33.8,12.7,5.73,2.43,8.9,33.9
2013-08-12 00:25:00,0.0,1.86379,0.00103,379.762,0.094,1.8503,0.0090,140.002,45.000,31817.99167,1.89991,388.757,41.000,45.050,45.000,0.00,0.13,-272.53,-272.61,-32,576,-14,30.6,32.6,12.3,30.4,34.1,12.8,5.73,2.41,8.9,34.0
2013-08-12 00:26:00,0.0,1.86589,0.00067,379.912,0.066,1.8563,0.0050,139.998,45.000,31817.62153,1.90203,388.925,41.000,45.050,45.000,0.00,0.13,-272.53,-272.60,-32,577,-14,30.6,32.6,12.3,30.4,34.2,12.8,5.73,2.50,8.9,34.0
2013-08-12 00:27:00,0.0,1.86881,0.00105,380.048,0.052,1.8517,0.0016,139.999,45.000,31817.52644,1.90465,389.044,41.000,45.050,45.000,0.00,0.13,-272.53,-272.61,-32,577,-14,30.6,32.5,12.3,30.4,34.1,12.8,5.73,2.44,8.9,34.1
2013-08-12 00:28:00,0.0,1.87077,0.00117,379.990,0.247,1.8531,0.0024,140.000,45.000,31815.37350,1.90698,389.005,41.000,45.050,45.000,0.00,0.13,-272.53,-272.60,-32,577,-14,30.6,32.6,12.3,30.4,34.1,12.8,5.73,2.40,8.9,34.1
2013-08-12 00:29:00,0.0,1.87174,0.00055,379.834,0.237,1.8695,0.0058,139.998,45.000,31813.62439,1.90829,388.914,40.995,45.050,45.000,0.00,0.13,-272.53,-272.61,-32,576,-14,30.6,32.9,12.5,30.4,34.4,12.9,5.73,2.51,8.9,34.1
2013-08-12 00:30:00,0.0,1.87216,0.00078,380.067,0.064,1.8591,0.0041,139.998,45.000,31813.78066,1.90852,389.114,40.992,45.050,45.000,0.00,0.13,-272.53,-272.61,-32,577,-14,30.6,32.7,12.3,30.4,34.2,12.8,5.73,2.45,8.9,34.1
2013-08-12 00:31:00,0.0,1.87229,0.00195,380.016,0.171,1.8491,0.0032,140.001,45.000,31816.29621,1.90875,388.998,40.991,45.050,45.000,0.00,0.13,-272.53,-272.61,-32,577,-14,30.6,32.5,12.3,30.4,34.0,12.8,5.73,2.39,8.9,34.2
2013-08-12 00:32:00,0.0,1.86975,0.00129,380.161,0.027,1.8459,0.0027,140.004,45.000,31816.91971,1.90586,389.136,40.996,45.050,45.000,0.00,0.13,-272.53,-272.61,-32,577,-14,30.6,32.5,12.3,30.4,34.0,12.7,5.73,2.49,8.9,34.2
2013-08-12 00:33:00,0.0,1.86857,0.00079,380.141,0.042,1.8450,0.0016,140.003,45.000,31816.07453,1.90485,389.114,40.987,45.050,45.000,0.00,0.13,-272.53,-272.61,-32,577,-14,30.6,32.4,12.2,30.4,33.9,12.7,5.73,2.46,8.9,34.1
2013-08-12 00:34:00,0.0,1.87038,0.00162,379.970,0.055,1.8443,0.0018,140.003,45.000,31815.72956,1.90608,388.938,40.989,45.050,45.000,0.00,0.13,-272.53,-272.61,-32,577,-14,30.6,32.4,12.2,30.4,33.9,12.7,5.73,2.39,8.9,34.1
2013-08-12 00:35:00,0.0,1.86958,0.00210,379.940,0.079,1.8515,0.0022,140.000,45.000,31813.03882,1.90607,388.934,40.981,45.050,45.000,0.00,0.13,-272.53,-272.60,-32,577,-14,30.6,32.5,12.3,30.4,34.1,12.8,5.73,2.48,8.9,34.1
2013-08-12 00:36:00,0.0,1.86866,0.00049,380.041,0.051,1.8505,0.0018,140.004,45.000,31815.47247,1.90478,389.035,40.966,45.050,45.000,0.00,0.13,-272.53,-272.61,-32,577,-14,30.6,32.5,12.3,30.4,34.0,12.7,5.73,2.47,8.9,33.9
2013-08-12 00:37:00,0.0,1.86924,0.00145,379.976,0.037,1.8476,0.0018,140.001,45.000,31817.90975,1.90553,388.959,40.988,45.050,45.000,0.00,0.13,-272.53,-272.61,-32,577,-14,30.6,32.5,12.3,30.4,34.0,12.7,5.73,2.39,8.9,33.8
2013-08-12 00:38:00,0.0,1.86826,0.00184,379.969,0.033,1.8453,0.0025,139.997,45.000,31819.18961,1.90401,388.935,40.998,45.050,45.000,0.00,0.13,-272.53,-272.61,-32,577,-14,30.6,32.4,12.2,30.4,34.0,12.7,5.73,2.48,8.9,33.9
2013-08-12 00:39:00,0.0,1.86831,0.00207,379.945,0.037,1.8459,0.0022,139.998,45.000,31818.64632,1.90450,388.913,40.996,45.050,45.000,0.00,0.13,-272.53,-272.61,-32,577,-14,30.6,32.5,12.3,30.4,34.0,12.7,5.73,2.48,8.9,33.8
2013-08-12 00:40:00,0.0,1.86835,0.00135,379.963,0.032,1.8484,0.0022,139.999,45.000,31817.13434,1.90475,388.946,40.994,45.050,45.000,0.00,0.13,-272.53,-272.61,-32,577,-14,30.6,32.5,12.3,30.4,34.0,12.7,5.73,2.39,8.9,33.8
2013-08-12 00:41:00,0.0,1.86447,0.00290,379.945,0.031,1.8520,0.0040,140.001,45.000,31819.09586,1.90047,388.943,40.983,45.050,45.000,0.00,0.13,-272.53,-272.61,-32,577,-14,30.6,32.6,12.3,30.4,34.1,12.8,5.73,2.47,8.9,33.8
2013-08-12 00:42:00,0.0,1.86807,0.00141,379.956,0.029,1.8542,0.0029,139.998,45.000,31818.65321,1.90437,388.971,40.991,45.050,45.000,0.00,0.13,-272.53,-272.61,-32,577,-14,30.6,32.6,12.3,30.4,34.2,12.8,5.73,2.49,8.9,33.8
2013-08-12 00:43:00,0.0,1.86760,0.00144,379.962,0.022,1.8575,0.0018,140.005,45.000,31820.03195,1.90382,388.989,40.988,45.050,45.000,0.00,0.13,-272.53,-272.61,-32,577,-14,30.6,32.7,12.3,30.4,34.2,12.8,5.73,2.39,8.9,33.9
2013-08-12 00:44:00,0.0,1.86593,0.00117,379.904,0.025,1.8655,0.0045,139.996,45.000,31815.97017,1.90267,388.972,40.987,45.050,45.000,0.00,0.13,-272.53,-272.61,-32,576,-14,30.6,32.8,12.4,30.4,34.4,12.9,5.73,2.46,8.9,33.8
2013-08-12 00:45:00,0.0,1.86570,0.00222,379.888,0.043,1.8762,0.0025,139.997,45.000,31816.97828,1.90195,389.013,40.977,45.050,45.000,0.00,0.13,-272.53,-272.61,-32,577,-14,30.6,33.1,12.5,30.4,34.6,13.0,5.73,2.49,8.9,33.8
2013-08-12 00:46:00,0.0,1.87039,0.00108,379.893,0.071,1.8776,0.0024,139.998,45.000,31817.62851,1.90723,389.015,40.988,45.050,45.000,0.00,0.13,-272.53,-272.61,-32,577,-14,30.6,33.1,12.5,30.4,34.7,13.0,5.73,2.39,8.9,33.9
2013-08-12 00:47:00,0.0,1.87348,0.00301,379.920,0.045,1.8910,0.0042,140.002,45.000,31818.67764,1.91003,389.121,40.984,45.050,45.000,0.00,0.13,-272.53,-272.61,-32,577,-14,30.6,33.3,12.7,30.4,34.9,13.1,5.73,2.45,8.9,33.8
2013-08-12 00:48:00,0.0,1.87933,0.00337,379.961,0.048,1.9044,0.0051,140.000,45.000,31818.87197,1.91639,389.229,40.999,45.050,45.000,0.00,0.13,-272.53,-272.61,-32,576,-14,30.6,33.6,12.8,30.4,35.2,13.3,5.73,2.50,8.9,33.8
2013-08-12 00:49:00,0.0,1.87643,0.00583,379.956,0.065,1.9200,0.0060,139.997,45.000,31817.62501,1.91431,389.300,40.986,45.050,45.000,0.00,0.13,-272.53,-272.61,-32,577,-14,30.6,33.9,12.9,30.4,35.5,13.4,5.73,2.40,8.9,33.7
2013-08-12 00:50:00,0.0,1.87669,0.00429,380.073,0.028,1.9346,0.0053,140.000,45.000,31818.85859,1.91540,389.500,40.990,45.050,45.000,0.00,0.13,-272.53,-272.61,-32,577,-14,30.6,34.2,13.0,30.4,35.8,13.5,5.73,2.44,8.9,33.8
2013-08-12 00:51:00,0.0,1.86362,0.00717,380.078,0.034,1.9490,0.0045,140.000,45.000,31816.10251,1.90269,389.582,40.990,45.050,45.000,0.00,0.13,-272.53,-272.60,-32,577,-14,30.6,34.5,13.2,30.4,36.2,13.7,5.73,2.50,8.9,33.7
2013-08-12 00:52:00,0.0,1.86245,0.00097,380.054,0.069,1.9512,0.0030,139.998,45.000,31814.61594,1.90034,389.577,40.990,45.050,45.000,0.00,0.13,-272.53,-272.61,-32,576,-14,30.6,34.5,13.2,30.4,36.2,13.7,5.73,2.40,8.9,33.8
2013-08-12 00:53:00,0.0,1.86444,0.00107,380.024,0.023,1.9547,0.0020,140.005,45.000,31816.49565,1.90255,389.559,40.989,45.050,45.000,0.00,0.13,-272.53,-272.61,-32,577,-14,30.6,34.6,13.2,30.3,36.3,13.7,5.73,2.43,8.9,33.6
2013-08-12 00:54:00,0.0,1.86741,0.00083,380.062,0.028,1.9616,0.0038,139.996,45.000,31816.53690,1.90563,389.629,40.992,45.050,45.000,0.00,0.13,-272.53,-272.61,-32,577,-14,30.6,34.7,13.2,30.3,36.4,13.8,5.73,2.51,8.9,33.7
2013-08-12 00:55:00,0.0,1.86853,0.00088,379.991,0.024,1.9678,0.0020,139.999,45.000,31815.05815,1.90720,389.593,40.988,45.050,45.000,0.00,0.13,-272.53,-272.61,-32,576,-14,30.6,34.8,13.3,30.3,36.6,13.8,5.73,2.41,8.9,33.8
2013-08-12 00:56:00,0.0,1.86689,0.00224,380.012,0.035,1.9710,0.0014,139.995,45.000,31811.76814,1.90568,389.630,40.979,45.050,45.000,0.00,0.13,-272.53,-272.61,-32,577,-14,30.6,34.9,13.3,30.4,36.6,13.9,5.73,2.42,8.9,33.8
2013-08-12 00:57:00,0.0,1.86524,0.00083,379.972,0.028,1.9726,0.0018,140.001,45.000,31815.88899,1.90394,389.605,40.958,45.050,45.000,0.00,0.13,-272.53,-272.61,-32,577,-14,30.6,34.9,13.3,30.3,36.7,13.9,5.73,2.51,8.9,33.8
2013-08-12 00:58:00,0.0,1.86566,0.00134,380.011,0.035,1.9715,0.0015,140.000,45.000,31815.93223,1.90422,389.633,40.942,45.050,45.000,0.00,0.13,-272.53,-272.61,-32,577,-14,30.6,34.9,13.3,30.3,36.7,13.9,5.73,2.42,8.9,33.8
2013-08-12 00:59:00,0.0,1.86682,0.00076,380.073,0.043,1.9733,0.0026,139.997,45.000,31817.01278,1.90549,389.700,40.943,45.050,45.000,0.00,0.13,-272.53,-272.61,-32,576,-14,30.6,34.9,13.3,30.3,36.7,13.9,5.73,2.41,8.9,33.8
2013-08-12 01:00:00,0.0,1.86547,0.00082,380.048,0.031,1.9754,0.0020,140.003,45.000,31819.20336,1.90426,389.696,40.945,45.050,45.000,0.00,0.13,-272.53,-272.61,-32,577,-14,30.6,35.0,13.4,30.4,36.8,13.9,5.73,2.51,8.9,33.9
2013-08-12 01:01:00,0.0,1.86630,0.00035,380.103,0.024,1.9774,0.0025,140.003,45.000,31818.71479,1.90508,389.753,40.940,45.050,45.000,0.00,0.13,-272.53,-272.61,-32,577,-14,30.6,35.0,13.4,30.3,36.8,13.9,5.73,2.43,8.9,33.9
2013-08-12 01:02:00,0.0,1.86624,0.00063,380.137,0.028,1.9806,0.0031,139.997,45.000,31817.90012,1.90506,389.810,40.941,45.050,45.000,0.00,0.13,-272.53,-272.61,-32,577,-14,30.6,35.1,13.4,30.3,36.9,14.0,5.73,2.41,8.9,34.0
2013-08-12 01:03:00,0.0,1.86600,0.00090,380.115,0.048,1.9828,0.0031,140.002,45.000,31819.27061,1.90486,389.799,40.943,45.050,45.000,0.00,0.13,-272.53,-272.61,-32,576,-14,30.6,35.1,13.4,30.3,36.9,14.0,5.73,2.50,8.9,33.9
2013-08-12 01:04:00,0.0,1.86447,0.00066,380.075,0.029,1.9832,0.0021,139.999,45.000,31820.12777,1.90348,389.763,40.960,45.050,45.000,0.00,0.13,-272.53,-272.61,-32,577,-14,30.6,35.1,13.4,30.3,36.9,13.9,5.73,2.43,8.9,34.0
2013-08-12 01:05:00,0.0,1.86668,0.00105,380.134,0.049,1.9799,0.0021,139.998,45.000,31820.96660,1.90542,389.802,40.976,45.050,45.000,0.00,0.13,-272.53,-272.61,-32,577,-14,30.6,35.1,13.4,30.3,36.9,13.9,5.73,2.40,8.9,34.0
2013-08-12 01:06:00,0.0,1.86738,0.00153,380.129,0.106,1.9835,0.0018,140.003,45.000,31817.22440,1.90635,389.823,40.956,45.050,45.000,0.00,0.13,-272.54,-272.61,-32,577,-14,30.6,35.1,13.4,30.4,36.9,14.0,5.73,2.50,8.9,33.9
2013-08-12 01:07:00,0.0,1.86659,0.00064,380.121,0.072,1.9803,0.0032,139.998,45.000,31816.09544,1.90524,389.784,40.988,45.050,45.000,0.00,0.13,-272.53,-272.61,-32,577,-14,30.6,35.1,13.4,30.4,36.8,14.0,5.73,2.44,8.9,34.0
2013-08-12 01:08:00,0.0,1.86707,0.00053,380.074,0.066,1.9756,0.0028,139.997,45.000,31816.57895,1.90593,389.732,40.981,45.049,45.000,0.00,0.13,-272.53,-272.61,-32,577,-14,30.6,35.0,13.4,30.3,36.7,13.9,5.73,2.39,8.9,34.0
2013-08-12 01:09:00,0.0,1.86718,0.00035,380.117,0.083,1.9667,0.0036,140.002,45.000,31816.82741,1.90573,389.711,40.982,45.049,45.000,0.00,0.13,-272.53,-272.61,-32,577,-14,30.6,34.8,13.3,30.3,36.6,13.8,5.73,2.50,8.9,34.0
2013-08-12 01:10:00,0.0,1.86735,0.00043,380.099,0.024,1.9631,0.0028,139.996,45.000,31815.43431,1.90585,389.686,40.991,45.049,45.000,0.00,0.13,-272.53,-272.61,-32,577,-14,30.6,34.7,13.2,30.3,36.5,13.8,5.73,2.45,8.9,33.8
2013-08-12 01:11:00,0.0,1.86785,0.00063,380.133,0.053,1.9590,0.0024,139.993,45.000,31814.73464,1.90625,389.695,40.962,45.050,45.000,0.00,0.13,-272.53,-272.61,-32,577,-14,30.6,34.7,13.2,30.3,36.4,13.7,5.73,2.39,8.9,33.7
2013-08-12 01:12:00,0.0,1.86809,0.00062,380.137,0.036,1.9596,0.0018,140.002,45.000,31817.94013,1.90648,389.698,40.963,45.050,45.000,0.00,0.13,-272.54,-272.61,-32,577,-14,30.6,34.7,13.2,30.3,36.4,13.7,5.73,2.49,8.9,33.8
2013-08-12 01:13:00,0.0,1.86815,0.00100,380.142,0.065,1.9607,0.0015,140.001,45.000,31816.60290,1.90656,389.707,40.973,45.050,45.000,0.00,0.13,-272.54,-272.61,-32,577,-14,30.6,34.7,13.2,30.3,36.4,13.7,5.73,2.46,8.9,33.9
2013-08-12 01:14:00,0.0,1.86810,0.00035,380.122,0.070,1.9594,0.0040,139.997,45.000,31814.69882,1.90662,389.692,40.983,45.050,45.000,0.00,0.13,-272.53,-272.61,-32,576,-14,30.6,34.7,13.2,30.3,36.4,13.7,5.73,2.39,8.9,33.8
2013-08-12 01:15:00,0.0,1.86700,0.00058,380.015,0.038,1.9581,0.0024,139.998,45.000,31813.76493,1.90551,389.572,40.980,45.050,45.000,0.00,0.13,-272.54,-272.61,-32,577,-14,30.6,34.6,13.2,30.3,36.4,13.7,5.73,2.49,8.9,33.9
2013-08-12 01:16:00,0.0,1.86626,0.00060,380.045,0.037,1.9556,0.0018,139.998,45.000,31816.12771,1.90469,389.586,40.980,45.050,45.000,0.00,0.13,-272.53,-272.61,-32,577,-14,30.6,34.6,13.2,30.3,36.3,13.7,5.73,2.46,8.9,34.0
2013-08-12 01:17:00,0.0,1.86473,0.00129,380.012,0.060,1.9580,0.0019,139.998,45.000,31816.34112,1.90293,389.561,40.951,45.050,45.000,0.00,0.13,-272.53,-272.61,-32,577,-14,30.6,34.6,13.2,30.3,36.4,13.7,5.73,2.39,8.9,34.1
2013-08-12 01:18:00,0.0,1.86704,0.00075,380.200,0.069,1.9584,0.0014,140.002,45.000,31816.96927,1.90556,389.760,40.959,45.050,45.000,0.00,0.13,-272.53,-272.60,-32,576,-14,30.6,34.7,13.2,30.3,36.4,13.7,5.73,2.49,8.9,34.0
2013-08-12 01:19:00,0.0,1.86509,0.00102,380.267,0.092,1.9622,0.0026,139.999,45.000,31815.85810,1.90360,389.832,40.950,45.050,45.000,0.00,0.13,-272.53,-272.61,-32,577,-14,30.6,34.7,13.3,30.3,36.5,13.8,5.73,2.46,8.9,34.0
2013-08-12 01:20:00,0.0,1.86362,0.00031,380.158,0.056,1.9684,0.0022,139.999,45.000,31816.38965,1.90215,389.778,40.954,45.050,45.000,0.00,0.13,-272.53,-272.61,-32,577,-14,30.6,34.8,13.3,30.4,36.6,13.8,5.73,2.39,8.9,34.1
2013-08-12 01:21:00,0.0,1.86368,0.00039,380.665,0.181,1.9700,0.0027,139.998,45.000,31817.29125,1.90230,390.274,40.941,45.050,45.000,0.00,0.13,-272.53,-272.60,-32,577,-14,30.6,34.9,13.3,30.3,36.6,13.8,5.73,2.48,8.9,34.0
2013-08-12 01:22:00,0.0,1.86317,0.00031,380.607,0.171,1.9765,0.0018,140.003,45.000,31819.39546,1.90182,390.286,40.940,45.050,45.000,0.00,0.13,-272.53,-272.61,-32,577,-14,30.6,35.0,13.4,30.3,36.8,13.9,5.73,2.47,8.9,34.1
2013-08-12 01:23:00,0.0,1.86325,0.00034,380.215,0.033,1.9772,0.0029,140.004,45.000,31821.78192,1.90197,389.878,40.954,45.050,45.000,0.00,0.13,-272.53,-272.61,-32,577,-14,30.6,35.0,13.4,30.4,36.8,13.9,5.73,2.39,8.9,34.2
2013-08-12 01:24:00,0.0,1.86344,0.00025,380.207,0.063,1.9739,0.0038,139.996,45.000,31818.42998,1.90211,389.850,40.972,45.050,45.000,0.00,0.13,-272.53,-272.61,-32,577,-14,30.6,34.9,13.4,30.3,36.7,13.9,5.73,2.48,8.9,34.1
2013-08-12 01:25:00,0.0,1.86343,0.00019,380.121,0.040,1.9719,0.0023,139.995,45.000,31817.05868,1.90201,389.754,40.971,45.050,45.000,0.00,0.13,-272.53,-272.61,-32,576,-14,30.6,34.9,13.3,30.4,36.7,13.9,5.73,2.47,8.9,34.1
2013-08-12 01:26:00,0.0,1.86363,0.00036,380.081,0.023,1.9694,0.0018,139.999,45.000,31817.97554,1.90221,389.695,40.964,45.050,45.000,0.00,0.13,-272.53,-272.61,-32,577,-14,30.6,34.8,13.3,30.3,36.6,13.8,5.73,2.39,8.9,34.0
2013-08-12 01:27:00,0.0,1.86263,0.00059,379.985,0.042,1.9672,0.0021,140.006,45.000,31819.44448,1.90117,389.591,40.975,45.050,45.000,0.00,0.13,-272.53,-272.60,-32,577,-14,30.6,34.8,13.3,30.3,36.6,13.8,5.73,2.49,8.9,34.1
2013-08-12 01:28:00,0.0,1.86228,0.00057,379.976,0.061,1.9657,0.0021,140.001,45.000,31816.02438,1.90077,389.565,40.968,45.050,45.000,0.00,0.13,-272.53,-272.61,-32,577,-14,30.6,34.8,13.3,30.3,36.6,13.8,5.73,2.46,8.9,34.0
2013-08-12 01:29:00,0.0,1.86213,0.00036,379.972,0.046,1.9648,0.0022,140.002,45.000,31816.13208,1.90053,389.562,40.973,45.050,45.000,0.00,0.13,-272.53,-272.61,-32,576,-14,30.6,34.8,13.3,30.3,36.6,13.8,5.73,2.39,8.9,33.9
2013-08-12 01:30:00,0.0,1.86093,0.00022,379.906,0.024,1.9646,0.0016,140.002,45.000,31817.44304,1.89942,389.492,40.988,45.050,45.000,0.00,0.13,-272.53,-272.60,-32,577,-14,30.6,34.8,13.3,30.3,36.5,13.8,5.73,2.49,8.9,33.9
2013-08-12 01:31:00,0.0,1.86111,0.00082,379.889,0.050,1.9633,0.0021,139.999,45.000,31817.42144,1.89957,389.469,40.997,45.050,45.000,0.00,0.13,-272.53,-272.61,-32,577,-14,30.6,34.7,13.2,30.3,36.5,13.8,5.73,2.46,8.9,33.8
2013-08-12 01:32:00,0.0,1.86103,0.00067,379.883,0.043,1.9638,0.0017,140.001,45.000,31816.30990,1.89941,389.460,40.994,45.049,45.000,0.00,0.13,-272.53,-272.61,-32,576,-14,30.6,34.7,13.3,30.3,36.5,13.8,5.73,2.39,8.9,33.7
2013-08-12 01:33:00,0.0,1.86120,0.00065,379.921,0.056,1.9620,0.0019,139.998,45.000,31814.32493,1.89944,389.492,40.988,45.050,45.000,0.00,0.13,-272.53,-272.61,-32,577,-14,30.6,34.7,13.3,30.3,36.5,13.8,5.73,2.48,8.9,33.7
2013-08-12 01:34:00,0.0,1.86094,0.00045,379.885,0.039,1.9629,0.0028,139.999,45.000,31812.46346,1.89929,389.457,40.995,45.050,45.000,0.00,0.13,-272.53,-272.61,-32,577,-14,30.6,34.8,13.3,30.3,36.5,13.8,5.73,2.47,8.9,33.8
2013-08-12 01:35:00,0.0,1.86681,0.00589,381.087,0.839,1.9646,0.0015,140.001,45.000,31815.61080,1.90413,390.618,40.992,45.050,45.000,0.00,0.13,-272.53,-272.60,-32,577,-14,30.6,34.8,13.3,30.3,36.5,13.8,5.73,2.38,8.9,33.8
2013-08-12 01:36:00,0.0,1.87030,0.00394,381.456,0.649,1.9571,0.0036,140.003,45.000,31816.24001,1.90950,391.096,40.998,45.050,45.000,0.00,0.13,-272.54,-272.61,-32,576,-14,30.6,34.6,13.2,30.3,36.4,13.7,5.73,2.48,8.9,33.6
2013-08-12 01:37:00,0.0,1.86370,0.00154,380.541,0.083,1.9519,0.0031,139.999,45.000,31817.33481,1.90222,390.088,40.997,45.050,45.000,0.00,0.13,-272.53,-272.61,-32,577,-14,30.6,34.5,13.1,30.3,36.2,13.6,5.73,2.46,8.9,33.8
2013-08-12 01:38:00,0.0,1.86075,0.00096,380.189,0.078,1.9529,0.0029,140.001,45.000,31816.71012,1.89908,389.729,40.975,45.050,45.000,0.00,0.13,-272.53,-272.60,-32,577,-14,30.6,34.6,13.2,30.3,36.3,13.7,5.73,2.39,8.9,33.7
2013-08-12 01:39:00,0.0,1.86140,0.00059,380.166,0.083,1.9587,0.0029,140.002,45.000,31815.13766,1.89965,389.726,40.982,45.050,45.000,0.00,0.13,-272.53,-272.61,-32,577,-14,30.6,34.6,13.2,30.3,36.4,13.7,5.73,2.50,8.9,33.9
2013-08-12 01:40:00,0.0,1.86152,0.00063,380.203,0.063,1.9596,0.0021,139.999,45.000,31815.70588,1.89977,389.767,40.977,45.050,45.000,0.00,0.13,-272.53,-272.61,-32,577,-14,30.6,34.7,13.2,30.3,36.4,13.7,5.73,2.46,8.9,33.8
2013-08-12 01:41:00,0.0,1.86271,0.00231,380.202,0.106,1.9561,0.0057,140.002,45.000,31817.14008,1.90112,389.755,40.955,45.050,45.000,0.00,0.13,-272.53,-272.61,-32,577,-14,30.6,34.6,13.2,30.3,36.3,13.7,5.73,2.39,8.9,33.9
2013-08-12 01:42:00,0.0,1.86204,0.00144,380.184,0.054,1.9557,0.0058,139.996,45.000,31815.25090,1.90003,389.722,40.950,45.050,45.000,0.00,0.13,-272.53,-272.61,-32,577,-14,30.6,34.6,13.2,30.3,36.4,13.7,5.73,2.49,8.9,33.9
2013-08-12 01:43:00,0.0,1.86213,0.00109,380.184,0.036,1.9578,0.0018,140.001,45.000,31815.47197,1.90055,389.742,40.952,45.050,45.000,0.00,0.13,-272.53,-272.61,-32,577,-14,30.6,34.7,13.2,30.3,36.4,13.7,5.73,2.45,8.9,34.0
2013-08-12 01:44:00,0.0,1.86187,0.00144,380.176,0.059,1.9656,0.0044,139.999,45.000,31814.55491,1.90005,389.764,40.950,45.050,45.000,0.00,0.13,-272.53,-272.61,-32,577,-14,30.6,34.8,13.3,30.3,36.6,13.8,5.73,2.39,8.9,33.7
2013-08-12 01:45:00,0.0,1.86365,0.00223,380.295,0.102,1.9594,0.0083,140.003,45.000,31815.54552,1.90225,389.868,40.973,45.050,45.000,0.00,0.13,-272.53,-272.61,-32,577,-14,30.6,34.6,13.2,30.3,36.4,13.7,5.73,2.49,8.9,33.9
2013-08-12 01:46:00,0.0,1.85925,0.00185,380.142,0.088,1.9534,0.0064,140.000,45.000,31816.69969,1.89774,389.680,40.963,45.050,45.000,0.00,0.13,-272.54,-272.61,-32,577,-14,30.6,34.6,13.2,30.3,36.3,13.7,5.73,2.45,8.9,34.0